Starlink 5289

operational
NORAD ID: 55278 Int'l Des: 2023-010 Owner: SPXS Country: US Constellation: starlink
LEOCIRCULAR

Über Starlink 5289

Beschreibung wird geladen...

Live-Position

3D-Globus wird geladen...

Nächste Überflüge

Höhenverlauf

Altitude vs Time

uPlot chart will show altitude changes over time

Zweizeiliger Elementsatz

1 55278U 23010K 25349.94607323 .00000967 00000-0 88875-4 0 9992
2 55278 69.9982 255.5303 0003364 273.1171 86.9603 14.98326827160237
Epoch: 15. Dez. 2025 • Age: 18 hours

Aktueller Status

Höhe 576.3 km
Geschwindigkeit 7.57 km/s
Subsatellitenpunkt 29.11°N, 67.3°W
Startdatum 19. Jan. 2023
Alter 2.9 years
Typ internet

Technische Details

Klassifizierung Payload
Masse 305.00 kg
Trockenmasse 290.00 kg
Gesamtmasse 305.00 kg
Länge 0.20 m
Durchmesser 2.80 m
Spannweite 9.00 m
Form Box + pan
Hersteller SPXS
Bus-Typ Starlink
Phasenstatus In Orbit
Besitzer/Staat SPXS/US

Große Konstellationen

Loading constellations...